sat.trackr.live / text

‹ back to catalog

CS2

NORAD 49262 · 2021-088C

PAYLOAD ACTIVE UNKNOWN

§ Identity

Operator
Country
US
Launch date
2021-09-27
Launch site
AFWTR
Launch vehicle
Mass (kg)
RCS (m²)

External: N2YO · Heavens-Above · Gunter

§ Orbital elements

Epoch: 2026-05-25T03:51:05.344992Z

Period
93.78 min
Inclination
97.3830°
Eccentricity
0.0010766
Mean motion
15.35564691 rev/d
Perigee alt
451.9 km
Apogee alt
466.6 km
Semi-major
6,837.4 km
B*
4.2675e-4
RAAN
210.8096°
Arg perigee
158.0515°
Mean anomaly
202.1192°
Rev number
25,698

§ Raw data

CS21 49262U 21088C   26145.16047853  .00014709  00000+0  42675-3 0  99912 49262  97.3830 210.8096 0010766 158.0515 202.1192 15.35564691256988

JSON: /api/v1/satellites/49262 · /tle

For live sub-satellite position, see the globe view (requires WebGL).

§ Visibility from observer

Set your observer location to see the next 7 days of passes ≥ 10°. The values pass through the URL so the page stays shareable.

No JS? Fill the form by hand. The geolocation button needs JavaScript.